FENGYUN 1C DEB

Satellite information

Favourite Embed

Satellite Type and Status

DEBRISIN ORBIT

Key statistics

Satellite FENGYUN 1C DEB at a glance.

Uptime

9714

Days in orbit

Revolutions

≈ 14.2

Per day

Orbit

SSO

Sun Synchronous Orbit

Inclination

98.9

Latest

Satellite identification and parameters

Extended collection of information and parameters for FENGYUN 1C DEB.

Object identification

Identified? True

Debris? True

Object name: FENGYUN 1C DEB

International designator: 1999-025DVV

Object number (NORAD): 36244

Object ID (CCSDS): 36244

Country: PEOPLES REPUBLIC OF CHINA (PRC)

Current information (Y/N): Y

RCS size: SMALL

Orbital parameters

Period: 101.057 minutes

Inclination: 98.9256 deg

SMA: 7186.833 km

Apoapsis: 843.577 km

Periapsis: 773.819 km

RAAN: 94.837 deg

Eccentricy: 0.0048532

Argument of periapsis: 291.7141 deg

Mean anomaly: 67.8875 deg

Mean motion: 14.24939547 rev/day

Mean motion (dot): 0.00006011 rev/day2

B* drag term: 0.0025575 1/REarth

Two-line elements (TLE)

Creation date: Dec. 10, 2025, 3:06 p.m.

Reference frame: TEME

Reference center: EARTH

Epoch: Dec. 10, 2025, 6:13 a.m. UTC

TLE line 0: 0 FENGYUN 1C DEB

TLE line 1: 1 36244U 99025DVV 25344.25943367 .00006011 00000-0 25575-2 0 9995

TLE line 2: 2 36244 98.9256 94.8370 0048532 291.7141 67.8875 14.24939547919433

Live tracking on map

Real-time ground track for satellite FENGYUN 1C DEB.

In-orbit conjunctions

A list of the most updated potential collisions computed for object FENGYUN 1C DEB.

Target Orbit TCA Probability of collision Miss distance Type
METEOR 1-20 LEO 2025-08-30 03:17:33 0.0001065489 975.0 (m) PAYLOAD
FENGYUN 1C DEB SSO 2024-09-27 06:24:53 0.0001199965 624.0 (m) DEBRIS

Associated space launch

Chinese polar orbiting meteorological satellite

FENGYUN 1C DEB was lifted into orbit during the mission ‘Long March 4B | Feng Yun 1C’, on board a Long March 4B space rocket.

The launch took place on May 10, 1999, 1:33 a.m. from Launch Complex 7.

For more information about the launch, click the button.

Launch to space Long March 4B | Feng Yun 1C
Long March 4B | Feng Yun 1C

Agency: N/A

Status: Launch Successful

Launch date: May 10, 1999, 1:33 a.m. UTC

Rocket: Long March 4B

Launch pad: Launch Complex 7

Location: Taiyuan Satellite Launch Center, People's Republic of China

...

Latest news about this satellite

There are no fresh news available about this satellite. Check back as we update our databases every day.


Newsletter sign-up

Weekly statistics, charts and insights to help you stay on top of the space industry.